QPF
0.00 0.00 0.00 0.00 0.00 0.00 0.00 0.00 0.00 0.00 0.00 0.00 0.00 0.00 0.00 0.00 0.00 0.00 0.00 0.00 0.00 0.00 0.00 0.00 0.00 0.00 0.00 0.00 0.00 0.00 0.00 0.00 0.00 0.00 0.00 0.00 0.00 0.00 0.00 0.00 0.00 0.00 0.00
0.00 0.00 0.00 0.00 0.00 0.00 0.00 0.00 0.00 0.00 0.00 0.00 0.00 0.00 0.00 0.00 0.00 0.00 0.00 0.00 0.00 0.00 0.00 0.00 0.00 0.00 0.00 0.00 0.00 0.00 0.00 0.00 0.00 0.00 0.00 0.00 0.00 0.00 0.00 0.00 0.00 0.00 0.00
0.00 0.00 0.00 0.00 0.00 0.00 0.00 0.00 0.00 0.00 0.00 0.00 0.00 0.00 0.00 0.00 0.00 0.00 0.00 0.00 0.00 0.00 0.00 0.00 0.00 0.00 0.00 0.00 0.00 0.00 0.00 0.00 0.00 0.00 0.00 0.00 0.00 0.00 0.00 0.00 0.00 0.00 0.00
0.00 0.00 0.00 0.00 0.00 0.00 0.00 0.00 0.00 0.00 0.00 0.00 0.00 0.00 0.00 0.00 0.00 0.00 0.00 0.00 0.00 0.00 0.00 0.00 0.01 0.01 0.00 0.00 0.00 0.00 0.00 0.00 0.00 0.00 0.00 0.00 0.00 0.00 0.00 0.00 0.00 0.00 0.00
0.00 0.00 0.00 0.00 0.00 0.00 0.00 0.00 0.00 0.00 0.00 0.00 0.00 0.00 0.00 0.00 0.00 0.00 0.00 0.00 0.00 0.00 0.01 0.01 0.01 0.01 0.01 0.01 0.01 0.01 0.01 0.01 0.01 0.01 0.00 0.00 0.00 0.00 0.00 0.00 0.00 0.00 0.00
0.00 0.00 0.00 0.00 0.00 0.00 0.00 0.00 0.00 0.00 0.00 0.00 0.00 0.00 0.00 0.00 0.00 0.00 0.00 0.00 0.00 0.00 0.00 0.01 0.01 0.01 0.01 0.01 0.01 0.01 0.01 0.01 0.01 0.01 0.00 0.00 0.00 0.00 0.00 0.00 0.00 0.00 0.00
0.00 0.00 0.00 0.00 0.00 0.00 0.00 0.00 0.00 0.00 0.00 0.00 0.00 0.00 0.00 0.00 0.00 0.00 0.00 0.00 0.00 0.00 0.01 0.01 0.01 0.01 0.01 0.01 0.01 0.01 0.01 0.01 0.00 0.00 0.00 0.00 0.00 0.00 0.00 0.00 0.00 0.00 0.00
0.00 0.00 0.00 0.00 0.00 0.00 0.00 0.00 0.00 0.00 0.00 0.00 0.00 0.00 0.00 0.00 0.00 0.00 0.00 0.00 0.00 0.01 0.01 0.01 0.01 0.01 0.01 0.01 0.01 0.01 0.01 0.01 0.00 0.00 0.00 0.01 0.01 0.01 0.01 0.00 0.00 0.00 0.00
0.00 0.00 0.00 0.00 0.00 0.00 0.00 0.00 0.00 0.00 0.00 0.00 0.00 0.00 0.00 0.00 0.00 0.00 0.00 0.00 0.00 0.00 0.00 0.00 0.01 0.01 0.01 0.01 0.01 0.01 0.01 0.01 0.01 0.01 0.01 0.01 0.00 0.00 0.00 0.00 0.00 0.00 0.00
0.00 0.00 0.00 0.00 0.00 0.00 0.00 0.00 0.00 0.00 0.00 0.00 0.00 0.00 0.00 0.00 0.00 0.00 0.00 0.00 0.00 0.00 0.00 0.00 0.01 0.01 0.01 0.01 0.01 0.01 0.01 0.01 0.01 0.01 0.01 0.00 0.00 0.00 0.00 0.00 0.00 0.00 0.00
0.00 0.00 0.00 0.00 0.00 0.00 0.00 0.00 0.00 0.00 0.00 0.00 0.00 0.00 0.00 0.00 0.00 0.00 0.00 0.00 0.00 0.00 0.00 0.01 0.01 0.01 0.01 0.01 0.01 0.01 0.01 0.01 0.00 0.00 0.00 0.00 0.00 0.00 0.00 0.00 0.00 0.00 0.00
0.00 0.00 0.00 0.00 0.00 0.00 0.00 0.00 0.00 0.00 0.00 0.00 0.00 0.00 0.00 0.00 0.00 0.00 0.00 0.00 0.00 0.00 0.01 0.01 0.01 0.01 0.00 0.00 0.00 0.00 0.00 0.00 0.00 0.00 0.00 0.00 0.00 0.00 0.00 0.00 0.00 0.00 0.00
0.00 0.00 0.00 0.00 0.00 0.00 0.00 0.00 0.00 0.00 0.00 0.00 0.00 0.00 0.00 0.00 0.00 0.00 0.00 0.00 0.00 0.00 0.00 0.00 0.00 0.00 0.00 0.00 0.00 0.00 0.00 0.00 0.00 0.00 0.00 0.00 0.00 0.00 0.00 0.00 0.00 0.00 0.00
0.00 0.00 0.00 0.00 0.00 0.00 0.00 0.00 0.00 0.00 0.00 0.00 0.00 0.00 0.00 0.00 0.00 0.00 0.00 0.00 0.00 0.00 0.00 0.00 0.00 0.00 0.00 0.00 0.00 0.00 0.00 0.00 0.00 0.00 0.00 0.00 0.00 0.00 0.00 0.00 0.00 0.00 0.01
0.00 0.00 0.00 0.00 0.00 0.00 0.00 0.00 0.00 0.00 0.00 0.00 0.00 0.00 0.00 0.00 0.00 0.00 0.00 0.00 0.00 0.00 0.00 0.00 0.00 0.00 0.00 0.00 0.00 0.00 0.00 0.00 0.00 0.00 0.00 0.00 0.00 0.00 0.01 0.01 0.01 0.01 0.01
0.00 0.00 0.00 0.00 0.00 0.00 0.00 0.00 0.00 0.00 0.00 0.00 0.00 0.00 0.00 0.00 0.00 0.00 0.00 0.00 0.00 0.00 0.00 0.00 0.00 0.00 0.00 0.00 0.00 0.00 0.00 0.00 0.00 0.00 0.00 0.00 0.00 0.01 0.01 0.01 0.01 0.01 0.01
0.00 0.00 0.00 0.00 0.00 0.00 0.00 0.00 0.00 0.00 0.00 0.00 0.00 0.00 0.00 0.00 0.00 0.00 0.00 0.00 0.00 0.00 0.00 0.00 0.00 0.00 0.00 0.00 0.00 0.00 0.00 0.00 0.00 0.00 0.00 0.00 0.00 0.00 0.00 0.00 0.00 0.00 0.00
0.00 0.00 0.00 0.00 0.00 0.00 0.00 0.00 0.00 0.00 0.00 0.00 0.00 0.00 0.00 0.00 0.00 0.00 0.00 0.00 0.00 0.00 0.00 0.00 0.00 0.00 0.00 0.00 0.00 0.00 0.00 0.00 0.00 0.00 0.00 0.01 0.00 0.00 0.00 0.00 0.00 0.00 0.00
0.00 0.00 0.00 0.00 0.00 0.00 0.00 0.00 0.00 0.00 0.00 0.00 0.00 0.00 0.00 0.00 0.00 0.00 0.00 0.00 0.00 0.00 0.00 0.00 0.00 0.00 0.00 0.00 0.00 0.00 0.00 0.00 0.00 0.00 0.00 0.00 0.00 0.00 0.00 0.01 0.01 0.00 0.00
0.00 0.00 0.00 0.00 0.00 0.00 0.00 0.00 0.00 0.00 0.00 0.00 0.00 0.00 0.00 0.00 0.00 0.00 0.00 0.00 0.00 0.00 0.00 0.00 0.00 0.00 0.00 0.00 0.00 0.00 0.00 0.00 0.00 0.00 0.00 0.00 0.00 0.00 0.01 0.01 0.01 0.01 0.01
0.00 0.00 0.00 0.00 0.00 0.00 0.00 0.00 0.00 0.00 0.00 0.00 0.00 0.00 0.00 0.00 0.00 0.00 0.00 0.00 0.00 0.00 0.00 0.00 0.00 0.00 0.00 0.00 0.00 0.00 0.00 0.00 0.00 0.00 0.00 0.00 0.00 0.01 0.01 0.01 0.01 0.02 0.01
0.00 0.00 0.00 0.00 0.00 0.00 0.00 0.00 0.00 0.00 0.00 0.00 0.00 0.00 0.00 0.00 0.00 0.00 0.00 0.00 0.00 0.00 0.00 0.00 0.00 0.00 0.00 0.00 0.00 0.00 0.00 0.00 0.01 0.00 0.00 0.00 0.00 0.01 0.01 0.01 0.01 0.01 0.02
0.00 0.00 0.00 0.00 0.00 0.00 0.00 0.00 0.00 0.00 0.00 0.00 0.00 0.00 0.00 0.00 0.00 0.00 0.00 0.00 0.00 0.00 0.00 0.00 0.00 0.00 0.00 0.00 0.00 0.00 0.00 0.01 0.01 0.01 0.01 0.01 0.01 0.01 0.01 0.01 0.01 0.01 0.00
0.00 0.00 0.00 0.00 0.00 0.00 0.00 0.00 0.00 0.00 0.00 0.00 0.00 0.00 0.00 0.00 0.00 0.00 0.00 0.00 0.00 0.00 0.00 0.00 0.00 0.00 0.00 0.00 0.00 0.00 0.01 0.01 0.01 0.01 0.01 0.01 0.01 0.01 0.00 0.00 0.00 0.00 0.00
0.00 0.00 0.00 0.00 0.00 0.00 0.00 0.00 0.00 0.00 0.00 0.00 0.00 0.00 0.00 0.00 0.00 0.00 0.00 0.00 0.00 0.00 0.00 0.00 0.00 0.00 0.00 0.00 0.00 0.01 0.01 0.01 0.02 0.02 0.02 0.02 0.01 0.00 0.00 0.00 0.00 0.00 0.00
0.00 0.00 0.00 0.00 0.00 0.00 0.00 0.00 0.00 0.00 0.00 0.00 0.00 0.00 0.00 0.00 0.00 0.00 0.00 0.00 0.00 0.00 0.00 0.00 0.00 0.00 0.00 0.00 0.01 0.01 0.01 0.01 0.02 0.02 0.02 0.01 0.01 0.01 0.00 0.00 0.00 0.00 0.00
MSLP
1013.87 1013.80 1013.77 1013.78 1013.83 1013.93 1014.08 1014.30 1014.60 1014.96 1015.38 1015.82 1016.27 1016.70 1017.09 1017.43 1017.74 1018.03 1018.31 1018.61 1018.95 1019.34 1019.77 1020.24 1020.74 1021.25 1021.74 1022.19 1022.60 1022.94 1023.21 1023.40 1023.53 1023.59 1023.60 1023.55 1023.47 1023.37 1023.25 1023.14 1023.04 1022.96 1022.90
1013.69 1013.62 1013.58 1013.54 1013.53 1013.54 1013.61 1013.75 1013.99 1014.33 1014.75 1015.22 1015.72 1016.21 1016.65 1017.04 1017.37 1017.66 1017.95 1018.25 1018.59 1018.98 1019.43 1019.93 1020.46 1020.98 1021.48 1021.93 1022.32 1022.64 1022.90 1023.09 1023.23 1023.33 1023.39 1023.42 1023.42 1023.39 1023.34 1023.28 1023.21 1023.14 1023.06
1013.52 1013.47 1013.42 1013.37 1013.30 1013.24 1013.22 1013.29 1013.48 1013.78 1014.20 1014.70 1015.23 1015.76 1016.24 1016.65 1016.99 1017.29 1017.56 1017.84 1018.17 1018.55 1019.00 1019.50 1020.03 1020.55 1021.04 1021.48 1021.85 1022.15 1022.40 1022.60 1022.77 1022.92 1023.06 1023.18 1023.28 1023.34 1023.37 1023.36 1023.32 1023.24 1023.15
1013.40 1013.38 1013.34 1013.27 1013.16 1013.04 1012.95 1012.95 1013.08 1013.35 1013.74 1014.24 1014.78 1015.32 1015.82 1016.23 1016.57 1016.84 1017.09 1017.34 1017.64 1018.00 1018.43 1018.92 1019.43 1019.94 1020.42 1020.84 1021.19 1021.49 1021.74 1021.97 1022.19 1022.42 1022.65 1022.87 1023.07 1023.23 1023.34 1023.38 1023.35 1023.27 1023.15
1013.34 1013.36 1013.34 1013.26 1013.12 1012.94 1012.79 1012.72 1012.78 1013.00 1013.36 1013.83 1014.35 1014.88 1015.35 1015.75 1016.05 1016.29 1016.49 1016.71 1016.97 1017.30 1017.71 1018.18 1018.68 1019.18 1019.64 1020.05 1020.41 1020.71 1020.98 1021.25 1021.54 1021.84 1022.17 1022.50 1022.80 1023.06 1023.23 1023.32 1023.31 1023.22 1023.07
1013.34 1013.39 1013.40 1013.31 1013.14 1012.92 1012.71 1012.57 1012.56 1012.71 1013.01 1013.42 1013.90 1014.38 1014.82 1015.17 1015.43 1015.62 1015.78 1015.95 1016.18 1016.48 1016.87 1017.33 1017.82 1018.31 1018.77 1019.19 1019.55 1019.88 1020.18 1020.50 1020.85 1021.23 1021.65 1022.06 1022.46 1022.79 1023.02 1023.15 1023.16 1023.07 1022.90
1013.39 1013.46 1013.48 1013.38 1013.19 1012.92 1012.65 1012.45 1012.37 1012.44 1012.66 1013.01 1013.42 1013.83 1014.21 1014.50 1014.71 1014.86 1014.98 1015.12 1015.32 1015.61 1015.98 1016.43 1016.92 1017.41 1017.88 1018.31 1018.69 1019.03 1019.37 1019.73 1020.13 1020.58 1021.06 1021.55 1022.01 1022.40 1022.69 1022.85 1022.89 1022.80 1022.63
1013.42 1013.51 1013.52 1013.41 1013.19 1012.88 1012.56 1012.30 1012.15 1012.15 1012.30 1012.56 1012.90 1013.24 1013.55 1013.79 1013.95 1014.06 1014.16 1014.28 1014.47 1014.75 1015.12 1015.57 1016.06 1016.56 1017.03 1017.46 1017.85 1018.21 1018.57 1018.96 1019.39 1019.87 1020.39 1020.92 1021.42 1021.86 1022.19 1022.39 1022.46 1022.41 1022.27
1013.40 1013.47 1013.47 1013.34 1013.09 1012.75 1012.40 1012.09 1011.89 1011.83 1011.92 1012.11 1012.38 1012.66 1012.90 1013.10 1013.22 1013.31 1013.39 1013.51 1013.70 1013.98 1014.35 1014.80 1015.29 1015.78 1016.24 1016.67 1017.05 1017.41 1017.77 1018.16 1018.59 1019.08 1019.61 1020.15 1020.68 1021.14 1021.51 1021.76 1021.88 1021.88 1021.79
1013.27 1013.32 1013.28 1013.13 1012.86 1012.50 1012.14 1011.81 1011.59 1011.50 1011.54 1011.68 1011.89 1012.12 1012.33 1012.48 1012.59 1012.67 1012.75 1012.87 1013.07 1013.35 1013.72 1014.15 1014.62 1015.09 1015.53 1015.93 1016.29 1016.62 1016.95 1017.32 1017.73 1018.20 1018.71 1019.25 1019.78 1020.26 1020.66 1020.95 1021.14 1021.21 1021.20
1013.02 1013.02 1012.95 1012.77 1012.50 1012.15 1011.79 1011.48 1011.26 1011.17 1011.19 1011.31 1011.49 1011.69 1011.86 1012.00 1012.10 1012.17 1012.25 1012.38 1012.57 1012.85 1013.20 1013.60 1014.04 1014.46 1014.85 1015.20 1015.52 1015.80 1016.10 1016.42 1016.79 1017.22 1017.71 1018.23 1018.74 1019.23 1019.66 1020.01 1020.26 1020.42 1020.50
1012.65 1012.61 1012.51 1012.31 1012.04 1011.72 1011.40 1011.13 1010.95 1010.88 1010.91 1011.03 1011.19 1011.37 1011.52 1011.64 1011.73 1011.80 1011.88 1012.00 1012.18 1012.44 1012.75 1013.11 1013.48 1013.84 1014.17 1014.46 1014.71 1014.95 1015.19 1015.47 1015.80 1016.20 1016.65 1017.14 1017.65 1018.14 1018.59 1018.97 1019.29 1019.53 1019.71
1012.20 1012.13 1011.99 1011.80 1011.54 1011.27 1011.00 1010.79 1010.67 1010.64 1010.70 1010.83 1010.98 1011.14 1011.28 1011.38 1011.45 1011.51 1011.58 1011.68 1011.84 1012.05 1012.31 1012.60 1012.90 1013.19 1013.44 1013.66 1013.86 1014.05 1014.25 1014.50 1014.80 1015.16 1015.59 1016.06 1016.55 1017.04 1017.50 1017.91 1018.27 1018.57 1018.82
1011.72 1011.61 1011.46 1011.27 1011.05 1010.82 1010.63 1010.49 1010.43 1010.45 1010.54 1010.68 1010.83 1010.97 1011.08 1011.16 1011.20 1011.23 1011.28 1011.35 1011.46 1011.62 1011.81 1012.03 1012.26 1012.46 1012.65 1012.81 1012.96 1013.12 1013.30 1013.53 1013.82 1014.17 1014.58 1015.03 1015.51 1015.98 1016.44 1016.86 1017.24 1017.57 1017.85
1011.23 1011.10 1010.94 1010.76 1010.58 1010.41 1010.29 1010.22 1010.22 1010.29 1010.40 1010.53 1010.67 1010.78 1010.86 1010.90 1010.91 1010.91 1010.92 1010.95 1011.01 1011.11 1011.24 1011.39 1011.54 1011.68 1011.81 1011.93 1012.05 1012.19 1012.37 1012.61 1012.90 1013.26 1013.66 1014.11 1014.56 1015.02 1015.45 1015.84 1016.21 1016.53 1016.82
1010.75 1010.60 1010.44 1010.28 1010.13 1010.02 1009.96 1009.95 1010.01 1010.10 1010.22 1010.35 1010.46 1010.53 1010.57 1010.57 1010.54 1010.51 1010.48 1010.47 1010.49 1010.54 1010.61 1010.70 1010.79 1010.88 1010.97 1011.06 1011.17 1011.32 1011.51 1011.77 1012.08 1012.45 1012.86 1013.28 1013.72 1014.13 1014.52 1014.87 1015.18 1015.47 1015.72
1010.24 1010.09 1009.94 1009.80 1009.70 1009.64 1009.63 1009.67 1009.76 1009.87 1009.99 1010.10 1010.18 1010.21 1010.21 1010.17 1010.11 1010.04 1009.99 1009.95 1009.94 1009.95 1009.98 1010.02 1010.06 1010.12 1010.18 1010.26 1010.37 1010.53 1010.75 1011.02 1011.36 1011.73 1012.14 1012.55 1012.94 1013.31 1013.63 1013.91 1014.16 1014.38 1014.58
1009.70 1009.55 1009.42 1009.32 1009.25 1009.24 1009.28 1009.36 1009.47 1009.59 1009.70 1009.79 1009.83 1009.84 1009.80 1009.74 1009.66 1009.58 1009.51 1009.46 1009.43 1009.42 1009.42 1009.43 1009.44 1009.47 1009.51 1009.58 1009.69 1009.86 1010.09 1010.38 1010.72 1011.09 1011.48 1011.86 1012.20 1012.51 1012.76 1012.97 1013.14 1013.28 1013.42
1009.11 1008.98 1008.88 1008.82 1008.80 1008.84 1008.92 1009.04 1009.17 1009.30 1009.40 1009.47 1009.50 1009.48 1009.43 1009.35 1009.27 1009.20 1009.13 1009.09 1009.06 1009.03 1009.02 1009.00 1008.99 1008.99 1009.01 1009.06 1009.16 1009.32 1009.54 1009.82 1010.14 1010.50 1010.85 1011.18 1011.47 1011.70 1011.89 1012.02 1012.12 1012.20 1012.27
1008.48 1008.39 1008.34 1008.33 1008.38 1008.47 1008.61 1008.76 1008.91 1009.05 1009.15 1009.21 1009.23 1009.21 1009.16 1009.09 1009.03 1008.97 1008.93 1008.89 1008.87 1008.84 1008.81 1008.77 1008.73 1008.70 1008.68 1008.70 1008.77 1008.90 1009.08 1009.33 1009.62 1009.92 1010.22 1010.49 1010.72 1010.90 1011.01 1011.09 1011.13 1011.15 1011.19
1007.87 1007.84 1007.86 1007.92 1008.04 1008.20 1008.38 1008.58 1008.76 1008.92 1009.03 1009.09 1009.11 1009.10 1009.07 1009.02 1008.98 1008.95 1008.93 1008.91 1008.89 1008.86 1008.81 1008.74 1008.66 1008.58 1008.52 1008.49 1008.50 1008.58 1008.71 1008.90 1009.12 1009.37 1009.60 1009.82 1009.98 1010.10 1010.17 1010.20 1010.21 1010.21 1010.22
1007.35 1007.41 1007.50 1007.66 1007.85 1008.08 1008.33 1008.57 1008.78 1008.95 1009.08 1009.16 1009.19 1009.20 1009.18 1009.16 1009.15 1009.14 1009.13 1009.12 1009.09 1009.05 1008.97 1008.86 1008.74 1008.61 1008.49 1008.39 1008.34 1008.35 1008.41 1008.53 1008.68 1008.85 1009.02 1009.18 1009.29 1009.37 1009.42 1009.43 1009.42 1009.42 1009.43
1007.02 1007.16 1007.36 1007.61 1007.88 1008.18 1008.48 1008.76 1009.00 1009.19 1009.33 1009.42 1009.46 1009.48 1009.49 1009.48 1009.49 1009.49 1009.48 1009.46 1009.42 1009.34 1009.23 1009.08 1008.90 1008.71 1008.53 1008.38 1008.26 1008.19 1008.18 1008.23 1008.31 1008.42 1008.52 1008.63 1008.70 1008.76 1008.79 1008.80 1008.80 1008.81 1008.83
1006.92 1007.18 1007.47 1007.80 1008.15 1008.50 1008.84 1009.14 1009.40 1009.60 1009.74 1009.83 1009.88 1009.91 1009.92 1009.93 1009.93 1009.93 1009.91 1009.87 1009.79 1009.68 1009.52 1009.32 1009.09 1008.85 1008.62 1008.40 1008.23 1008.11 1008.04 1008.02 1008.04 1008.09 1008.15 1008.21 1008.26 1008.30 1008.33 1008.35 1008.38 1008.41 1008.45
1007.10 1007.45 1007.83 1008.23 1008.64 1009.02 1009.38 1009.68 1009.93 1010.12 1010.25 1010.33 1010.38 1010.40 1010.41 1010.41 1010.40 1010.38 1010.33 1010.26 1010.14 1009.98 1009.78 1009.54 1009.27 1008.99 1008.71 1008.46 1008.25 1008.09 1007.98 1007.92 1007.90 1007.90 1007.92 1007.96 1007.99 1008.02 1008.05 1008.09 1008.13 1008.18 1008.23
1007.53 1007.96 1008.41 1008.85 1009.27 1009.65 1009.99 1010.27 1010.49 1010.66 1010.76 1010.83 1010.86 1010.87 1010.87 1010.86 1010.83 1010.78 1010.70 1010.58 1010.43 1010.22 1009.98 1009.70 1009.40 1009.10 1008.81 1008.55 1008.32 1008.14 1008.01 1007.93 1007.88 1007.85 1007.85 1007.86 1007.87 1007.90 1007.93 1007.98 1008.03 1008.09 1008.15
Thickness
5720 5720 5718 5715 5711 5707 5703 5699 5693 5688 5680 5672 5665 5659 5653 5649 5644 5640 5635 5630 5625 5620 5614 5609 5604 5599 5594 5589 5584 5579 5575 5570 5567 5563 5561 5560 5558 5556 5553 5551 5548 5546 5543
5715 5716 5714 5711 5708 5706 5702 5698 5693 5687 5681 5675 5668 5660 5654 5648 5643 5637 5632 5627 5622 5617 5611 5606 5600 5595 5590 5584 5579 5574 5568 5564 5560 5555 5551 5549 5549 5548 5546 5542 5539 5537 5534
5712 5712 5710 5708 5705 5703 5701 5697 5692 5686 5680 5673 5664 5655 5648 5642 5637 5632 5628 5624 5619 5614 5609 5603 5598 5592 5586 5580 5575 5570 5564 5558 5552 5548 5544 5539 5539 5536 5537 5534 5531 5528 5525
5709 5708 5707 5705 5702 5701 5698 5695 5689 5683 5677 5670 5662 5655 5649 5643 5639 5634 5628 5622 5616 5611 5606 5600 5594 5589 5583 5577 5572 5566 5560 5554 5547 5540 5536 5533 5529 5524 5525 5525 5522 5519 5516
5704 5704 5704 5702 5701 5697 5693 5690 5685 5679 5673 5667 5661 5654 5649 5644 5637 5630 5624 5618 5612 5607 5602 5596 5591 5585 5579 5574 5568 5562 5555 5550 5544 5537 5530 5523 5518 5514 5511 5513 5512 5509 5507
5700 5700 5699 5698 5695 5691 5687 5684 5680 5675 5669 5664 5658 5652 5647 5640 5632 5626 5620 5614 5609 5603 5598 5592 5587 5582 5576 5570 5564 5558 5552 5545 5539 5533 5527 5520 5513 5507 5501 5500 5500 5498 5498
5695 5693 5693 5691 5689 5686 5682 5679 5675 5671 5666 5660 5655 5650 5644 5638 5631 5625 5618 5612 5605 5600 5595 5589 5583 5578 5573 5567 5560 5553 5547 5541 5535 5529 5523 5517 5512 5506 5498 5492 5490 5487 5487
5689 5689 5689 5686 5683 5681 5678 5674 5670 5667 5662 5656 5652 5646 5640 5634 5629 5623 5617 5610 5605 5599 5593 5586 5581 5575 5569 5562 5555 5549 5543 5536 5530 5524 5517 5511 5506 5499 5492 5486 5479 5476 5475
5685 5684 5683 5681 5678 5676 5673 5669 5666 5662 5658 5653 5647 5642 5636 5630 5625 5619 5613 5607 5602 5596 5589 5582 5576 5570 5564 5557 5550 5544 5537 5530 5524 5518 5511 5504 5499 5492 5486 5479 5472 5465 5463
5679 5678 5677 5675 5673 5670 5667 5664 5660 5657 5653 5648 5642 5638 5632 5627 5621 5614 5608 5602 5597 5591 5584 5577 5571 5565 5558 5552 5545 5538 5532 5524 5518 5511 5504 5497 5491 5485 5478 5471 5465 5458 5452
5673 5672 5670 5669 5666 5664 5660 5657 5654 5650 5646 5642 5637 5632 5627 5621 5615 5609 5603 5597 5591 5585 5579 5572 5566 5559 5553 5546 5539 5532 5525 5518 5511 5504 5497 5491 5484 5477 5470 5463 5456 5449 5441
5667 5666 5664 5661 5659 5657 5654 5651 5648 5644 5641 5636 5631 5626 5620 5614 5609 5603 5598 5592 5585 5579 5573 5566 5560 5553 5547 5540 5532 5525 5518 5511 5504 5497 5490 5484 5477 5469 5462 5455 5447 5441 5434
5661 5659 5656 5654 5653 5650 5647 5644 5641 5638 5634 5629 5624 5619 5613 5607 5602 5597 5591 5585 5579 5572 5566 5559 5553 5547 5540 5533 5526 5520 5512 5505 5498 5491 5484 5477 5469 5462 5454 5447 5439 5432 5426
5654 5652 5650 5648 5646 5643 5641 5638 5634 5631 5627 5622 5617 5612 5606 5601 5596 5590 5584 5578 5571 5565 5558 5552 5546 5540 5533 5526 5519 5512 5505 5498 5491 5484 5477 5470 5462 5455 5447 5439 5431 5423 5415
5649 5648 5646 5643 5640 5636 5633 5630 5627 5624 5620 5615 5610 5605 5600 5594 5588 5581 5575 5569 5563 5557 5551 5544 5538 5531 5525 5519 5511 5504 5497 5490 5483 5475 5468 5461 5454 5446 5438 5431 5423 5414 5406
5645 5644 5642 5638 5635 5631 5627 5623 5620 5616 5612 5607 5602 5597 5591 5585 5579 5573 5567 5560 5554 5548 5541 5535 5529 5522 5517 5511 5505 5497 5489 5481 5474 5466 5459 5451 5444 5437 5431 5424 5416 5407 5397
5642 5640 5638 5635 5632 5627 5622 5617 5613 5608 5603 5598 5593 5587 5582 5576 5571 5565 5558 5551 5545 5538 5531 5525 5519 5513 5507 5502 5496 5489 5481 5473 5465 5457 5449 5442 5435 5428 5420 5413 5406 5398 5389
5637 5636 5633 5629 5625 5620 5615 5610 5604 5599 5594 5589 5583 5578 5573 5567 5561 5555 5548 5542 5535 5528 5521 5515 5509 5503 5497 5492 5486 5479 5471 5462 5454 5446 5439 5431 5423 5416 5408 5401 5393 5385 5377
5634 5631 5627 5622 5617 5611 5606 5601 5595 5590 5585 5580 5575 5570 5564 5558 5551 5544 5538 5531 5525 5518 5511 5505 5498 5492 5486 5481 5475 5468 5459 5451 5443 5435 5427 5419 5412 5406 5398 5390 5382 5375 5367
5625 5621 5616 5612 5607 5602 5597 5591 5586 5580 5577 5572 5567 5561 5554 5548 5541 5535 5528 5521 5514 5507 5500 5494 5487 5481 5475 5470 5464 5457 5447 5439 5431 5424 5416 5409 5401 5394 5387 5377 5369 5362 5356
5615 5611 5607 5603 5599 5593 5588 5582 5577 5573 5569 5563 5556 5550 5544 5537 5530 5523 5516 5509 5502 5495 5488 5482 5475 5469 5463 5457 5451 5444 5435 5427 5419 5411 5403 5396 5389 5382 5375 5366 5357 5351 5344
5605 5601 5597 5593 5588 5583 5579 5573 5568 5564 5558 5552 5545 5539 5532 5526 5519 5511 5503 5497 5489 5482 5475 5468 5462 5456 5450 5444 5438 5431 5424 5416 5407 5399 5391 5384 5377 5370 5362 5354 5346 5339 5331
5594 5591 5588 5583 5577 5573 5570 5565 5560 5553 5547 5540 5533 5526 5520 5512 5506 5499 5491 5483 5476 5470 5463 5456 5450 5444 5437 5430 5425 5418 5411 5403 5394 5386 5379 5372 5364 5356 5347 5339 5332 5324 5314
5584 5581 5577 5572 5567 5562 5559 5555 5548 5542 5535 5528 5520 5514 5507 5499 5492 5486 5479 5472 5464 5457 5451 5444 5438 5431 5424 5416 5409 5402 5395 5389 5380 5372 5364 5357 5349 5340 5332 5324 5315 5306 5298
5574 5571 5569 5565 5559 5552 5547 5542 5536 5530 5523 5515 5508 5501 5494 5487 5479 5473 5466 5460 5454 5447 5440 5433 5425 5418 5411 5405 5400 5392 5384 5375 5367 5359 5349 5340 5331 5323 5316 5308 5300 5292 5285
5564 5560 5557 5553 5547 5541 5535 5530 5524 5519 5512 5504 5496 5489 5482 5474 5467 5460 5453 5448 5442 5437 5430 5423 5415 5408 5403 5396 5389 5382 5374 5365 5356 5346 5335 5326 5317 5309 5302 5295 5288 5280 5273